Regional Weather Roundup
Issued by NWS

Home | Current Version | Previous Version | Graphics & Text | Print | Product List | Glossary On
Versions: 1 2 3 4 5 6 7 8 9 10 11 12 13 14 15 16 17 18 19 20 21 22 23 24 25 26 27 28 29 30 31 32 33 34 35 36 37 38 39 40 41 42 43 44 45 46 47 48 49 50
603
ASUS43 KFSD 210210
RWRSD

WEATHER ROUNDUP FOR SOUTH DAKOTA
NATIONAL WEATHER SERVICE SIOUX FALLS SD
900 PM CDT WED SEP 20 2017

NOTE: "FAIR" INDICATES FEW OR NO CLOUDS BELOW 12,000 FEET WITH NO
SIGNIFICANT WEATHER AND/OR OBSTRUCTIONS TO VISIBILITY.


SDZ001>005-009-010-012>017-210300-
NORTHWEST AND NORTH CENTRAL SOUTH DAKOTA

CITY           SKY/WX    TMP DP  RH WIND       PRES   REMARKS
BUFFALO          N/A     63  26  24 S7        29.66R
FAITH            N/A     65  26  23 SE10      29.75R
MOBRIDGE       CLEAR     59  37  44 E12       29.75R
$$

SDZ012>016-024>037-041>051-057-063-072>074-210300-
SOUTHWEST AND SOUTH CENTRAL SOUTH DAKOTA

CITY           SKY/WX    TMP DP  RH WIND       PRES   REMARKS
RAPID CTY ARPT CLEAR     61  30  31 CALM      29.77R
PIERRE         CLEAR     61  33  35 SE9       29.76R
CUSTER         CLEAR     57  22  25 SW5       29.87R
ELLSWORTH AFB  CLOUDY    62  33  34 SE8       29.77R
PHILIP         CLEAR     61  32  33 SE3       29.76R
PINE RIDGE     CLEAR     68  36  30 S9        29.80S
SPEARFISH      FAIR      54  34  47 S7        29.78R
WINNER         FAIR      62  43  49 SE15      29.83R
$$

SDZ004>011-016>023-039-040-210300-
NORTHEAST SOUTH DAKOTA

CITY           SKY/WX    TMP DP  RH WIND       PRES   REMARKS
ABERDEEN       CLEAR     54  43  66 SE9       29.81R
WATERTOWN      CLEAR     56  46  69 SE5       29.87R
BROOKINGS      CLEAR     60  46  59 S9        29.91R
SISSETON         N/A     53  47  79 S5        29.85R
$$

SDZ017-020-022-023-036>040-048>070-210300-
SOUTHEAST SOUTH DAKOTA

CITY           SKY/WX    TMP DP  RH WIND       PRES   REMARKS
SIOUX FALLS    CLEAR     57  48  72 CALM      29.90R
HURON          CLEAR     64  46  52 S13       29.84R
CHAMBERLAIN    CLEAR     56  42  59 SE8       29.83S
MITCHELL       CLEAR     62  47  57 S9        29.87R
YANKTON        CLEAR     61  50  67 E3        29.89S
$$

ABBREVIATIONS USED IN REMARKS
   TC - TEMPERATURE IN CELSIUS
  WCI - WIND CHILL INDEX
   HX - HEAT INDEX
  VSB - VISIBILITY





USA.gov is the U.S. government's official web portal to all federal, state and local government web resources and services.